Time,TemperatureF,DewpointF,PressureIn,WindDirection,WindDirectionDegrees,WindSpeedMPH,WindSpeedGustMPH,Humidity,HourlyPrecipIn,Conditions,Clouds,dailyrainin,SoftwareType,DateUTC
2013-05-26 00:01:00,58.5,46.8,29.32,NE,45,0.0,0.0,65,0.00,,---,0.00,VWS V14.01,2013-05-26 04:01:00,
2013-05-26 00:06:00,58.5,47.2,29.32,East,90,0.0,0.0,66,0.00,,---,0.00,VWS V14.01,2013-05-26 04:06:00,
2013-05-26 00:11:00,58.3,47.0,29.32,North,0,0.0,0.0,66,0.00,,---,0.00,VWS V14.01,2013-05-26 04:11:00,
2013-05-26 00:16:00,58.3,47.0,29.32,North,0,0.0,0.0,66,0.00,,---,0.00,VWS V14.01,2013-05-26 04:16:00,
2013-05-26 00:21:00,58.3,47.0,29.32,East,90,0.0,0.0,66,0.00,,---,0.00,VWS V14.01,2013-05-26 04:21:00,
2013-05-26 00:26:00,58.1,47.2,29.32,East,90,0.0,0.0,67,0.00,,---,0.00,VWS V14.01,2013-05-26 04:26:00,
2013-05-26 00:31:00,58.1,47.2,29.32,NE,45,0.0,0.0,67,0.00,,---,0.00,VWS V14.01,2013-05-26 04:31:00,
2013-05-26 00:36:00,58.1,47.2,29.32,NE,45,0.0,0.0,67,0.00,,---,0.00,VWS V14.01,2013-05-26 04:36:00,
2013-05-26 00:41:00,58.1,47.2,29.32,NE,45,0.0,0.0,67,0.00,,---,0.00,VWS V14.01,2013-05-26 04:41:00,
2013-05-26 00:46:00,58.1,47.6,29.32,NE,45,0.0,0.0,68,0.00,,---,0.00,VWS V14.01,2013-05-26 04:46:00,
2013-05-26 00:51:00,58.1,47.6,29.32,East,90,0.0,0.0,68,0.00,,---,0.00,VWS V14.01,2013-05-26 04:51:00,
2013-05-26 00:56:00,57.9,47.4,29.32,East,90,0.0,0.0,68,0.00,,---,0.00,VWS V14.01,2013-05-26 04:56:00,
2013-05-26 01:01:00,57.9,47.4,29.32,ENE,68,0.0,0.0,68,0.00,,---,0.00,VWS V14.01,2013-05-26 05:01:00,
2013-05-26 01:06:00,57.9,47.4,29.32,ENE,68,0.0,0.0,68,0.00,,---,0.00,VWS V14.01,2013-05-26 05:06:00,
2013-05-26 01:11:00,57.9,47.4,29.32,East,90,0.0,0.0,68,0.00,,---,0.00,VWS V14.01,2013-05-26 05:11:00,
2013-05-26 01:16:00,57.9,47.4,29.32,East,90,0.0,0.0,68,0.00,,---,0.00,VWS V14.01,2013-05-26 05:16:00,
2013-05-26 01:21:00,57.7,47.3,29.32,East,90,0.0,0.0,68,0.00,,---,0.00,VWS V14.01,2013-05-26 05:21:00,
2013-05-26 01:26:00,57.7,47.3,29.32,North,0,0.0,0.0,68,0.00,,---,0.00,VWS V14.01,2013-05-26 05:26:00,
2013-05-26 01:31:00,57.7,47.3,29.32,North,0,0.0,0.0,68,0.00,,---,0.00,VWS V14.01,2013-05-26 05:31:00,
2013-05-26 01:36:00,57.7,47.7,29.32,North,0,0.0,0.0,69,0.00,,---,0.00,VWS V14.01,2013-05-26 05:36:00,
2013-05-26 01:41:00,57.6,47.5,29.32,North,0,0.0,0.0,69,0.00,,---,0.00,VWS V14.01,2013-05-26 05:41:00,
2013-05-26 01:46:00,57.6,47.5,29.32,East,90,0.0,0.0,69,0.00,,---,0.00,VWS V14.01,2013-05-26 05:46:00,
2013-05-26 01:51:00,57.6,47.1,29.29,ENE,68,0.0,0.0,68,0.00,,---,0.00,VWS V14.01,2013-05-26 05:51:00,
2013-05-26 01:56:00,57.6,47.1,29.29,ENE,68,0.0,0.0,68,0.00,,---,0.00,VWS V14.01,2013-05-26 05:56:00,
2013-05-26 02:01:00,57.6,46.7,29.29,ENE,68,0.0,0.0,67,0.00,,---,0.00,VWS V14.01,2013-05-26 06:01:00,
2013-05-26 02:06:00,57.4,46.5,29.29,NE,45,0.0,0.0,67,0.00,,---,0.00,VWS V14.01,2013-05-26 06:06:00,
2013-05-26 02:11:00,57.4,46.5,29.29,North,0,0.0,0.0,67,0.00,,---,0.00,VWS V14.01,2013-05-26 06:11:00,
2013-05-26 02:16:00,57.4,46.5,29.29,NE,45,0.0,0.0,67,0.00,,---,0.00,VWS V14.01,2013-05-26 06:16:00,
2013-05-26 02:21:00,57.4,46.9,29.29,ENE,68,0.0,0.0,68,0.00,,---,0.00,VWS V14.01,2013-05-26 06:21:00,
2013-05-26 02:26:00,57.4,47.3,29.29,West,270,0.0,0.0,69,0.00,,---,0.00,VWS V14.01,2013-05-26 06:26:00,
2013-05-26 02:31:00,57.4,47.3,29.29,West,270,0.0,0.0,69,0.00,,---,0.00,VWS V14.01,2013-05-26 06:31:00,
2013-05-26 02:36:00,57.4,47.3,29.29,West,270,0.0,0.0,69,0.00,,---,0.00,VWS V14.01,2013-05-26 06:36:00,
2013-05-26 02:41:00,57.4,47.3,29.29,West,270,0.0,0.0,69,0.00,,---,0.00,VWS V14.01,2013-05-26 06:41:00,
2013-05-26 02:46:00,57.4,47.3,29.29,West,270,0.0,0.0,69,0.00,,---,0.00,VWS V14.01,2013-05-26 06:46:00,
2013-05-26 02:51:00,57.4,47.7,29.29,West,270,0.0,0.0,70,0.00,,---,0.00,VWS V14.01,2013-05-26 06:51:00,
2013-05-26 02:56:00,57.4,47.7,29.29,West,270,0.0,0.0,70,0.00,,---,0.00,VWS V14.01,2013-05-26 06:56:00,
2013-05-26 03:01:00,57.4,47.7,29.29,WNW,292,0.0,0.0,70,0.00,,---,0.00,VWS V14.01,2013-05-26 07:01:00,
2013-05-26 03:06:00,57.2,47.5,29.29,NW,315,0.0,0.0,70,0.00,,---,0.00,VWS V14.01,2013-05-26 07:06:00,
2013-05-26 03:11:00,57.2,47.1,29.29,NW,315,0.0,0.0,69,0.00,,---,0.00,VWS V14.01,2013-05-26 07:11:00,
2013-05-26 03:16:00,57.2,47.5,29.29,NW,315,0.0,0.0,70,0.00,,---,0.00,VWS V14.01,2013-05-26 07:16:00,
2013-05-26 03:21:00,57.4,47.7,29.32,NW,315,0.0,0.0,70,0.00,,---,0.00,VWS V14.01,2013-05-26 07:21:00,
2013-05-26 03:26:00,57.4,48.1,29.32,WNW,292,0.0,0.0,71,0.00,,---,0.00,VWS V14.01,2013-05-26 07:26:00,
2013-05-26 03:31:00,57.2,47.9,29.32,West,270,0.0,0.0,71,0.00,,---,0.00,VWS V14.01,2013-05-26 07:31:00,
2013-05-26 03:36:00,57.2,47.5,29.32,NW,315,0.0,0.0,70,0.00,,---,0.00,VWS V14.01,2013-05-26 07:36:00,
2013-05-26 03:41:00,57.4,47.7,29.32,NW,315,0.0,0.0,70,0.00,,---,0.00,VWS V14.01,2013-05-26 07:41:00,
2013-05-26 03:46:00,57.2,47.9,29.32,West,270,0.0,0.0,71,0.00,,---,0.00,VWS V14.01,2013-05-26 07:46:00,
2013-05-26 03:51:00,57.2,47.5,29.32,WNW,292,0.0,0.0,70,0.00,,---,0.00,VWS V14.01,2013-05-26 07:51:00,
2013-05-26 03:56:00,57.2,47.5,29.32,NW,315,0.0,0.0,70,0.00,,---,0.00,VWS V14.01,2013-05-26 07:56:00,
2013-05-26 04:01:00,57.2,47.1,29.32,NNW,338,0.9,0.9,69,0.00,,---,0.00,VWS V14.01,2013-05-26 08:01:00,
2013-05-26 04:06:00,57.2,47.1,29.32,North,0,0.0,0.0,69,0.00,,---,0.00,VWS V14.01,2013-05-26 08:06:00,
2013-05-26 04:11:00,57.2,47.5,29.32,WSW,248,0.0,0.0,70,0.00,,---,0.00,VWS V14.01,2013-05-26 08:11:00,
2013-05-26 04:16:00,57.0,47.7,29.32,SW,225,0.0,0.0,71,0.00,,---,0.00,VWS V14.01,2013-05-26 08:16:00,
2013-05-26 04:21:00,57.2,47.5,29.32,East,90,0.0,0.0,70,0.00,,---,0.00,VWS V14.01,2013-05-26 08:21:00,
2013-05-26 04:26:00,57.0,47.3,29.32,SE,135,0.0,0.0,70,0.00,,---,0.00,VWS V14.01,2013-05-26 08:26:00,
2013-05-26 04:31:00,57.0,47.3,29.32,North,0,0.0,0.0,70,0.00,,---,0.00,VWS V14.01,2013-05-26 08:31:00,
2013-05-26 04:36:00,56.8,47.2,29.29,WSW,248,0.0,0.0,70,0.00,,---,0.00,VWS V14.01,2013-05-26 08:36:00,
2013-05-26 04:41:00,56.8,47.5,29.29,NNW,338,0.0,0.0,71,0.00,,---,0.00,VWS V14.01,2013-05-26 08:41:00,
2013-05-26 04:46:00,56.8,47.2,29.29,NNW,338,0.0,0.0,70,0.00,,---,0.00,VWS V14.01,2013-05-26 08:46:00,
2013-05-26 04:51:00,56.8,47.2,29.29,NNW,338,0.0,0.0,70,0.00,,---,0.00,VWS V14.01,2013-05-26 08:51:00,
2013-05-26 04:56:00,56.8,47.2,29.29,NNE,22,0.0,0.0,70,0.00,,---,0.00,VWS V14.01,2013-05-26 08:56:00,
2013-05-26 05:01:00,56.8,47.2,29.29,NNE,22,0.0,0.0,70,0.00,,---,0.00,VWS V14.01,2013-05-26 09:01:00,
2013-05-26 05:06:00,56.7,47.0,29.29,SE,135,0.0,0.0,70,0.00,,---,0.00,VWS V14.01,2013-05-26 09:06:00,
2013-05-26 05:11:00,56.7,47.4,29.29,ESE,112,0.0,0.0,71,0.00,,---,0.00,VWS V14.01,2013-05-26 09:11:00,
2013-05-26 05:16:00,56.7,47.4,29.29,East,90,0.0,0.0,71,0.00,,---,0.00,VWS V14.01,2013-05-26 09:16:00,
2013-05-26 05:21:00,56.7,47.4,29.29,East,90,0.0,0.0,71,0.00,,---,0.00,VWS V14.01,2013-05-26 09:21:00,
2013-05-26 05:26:00,56.7,47.4,29.29,East,90,0.0,0.0,71,0.00,,---,0.00,VWS V14.01,2013-05-26 09:26:00,
2013-05-26 05:31:00,56.7,47.4,29.29,East,90,0.0,0.0,71,0.00,,---,0.00,VWS V14.01,2013-05-26 09:31:00,
2013-05-26 05:35:00,56.5,47.2,29.29,East,90,0.0,0.0,71,0.00,,---,0.00,VWS V14.01,2013-05-26 09:35:00,
2013-05-26 05:40:00,56.5,47.2,29.29,East,90,0.0,0.0,71,0.00,,---,0.00,VWS V14.01,2013-05-26 09:40:00,
2013-05-26 05:45:00,56.5,47.2,29.29,East,90,0.0,0.0,71,0.00,,---,0.00,VWS V14.01,2013-05-26 09:45:00,
2013-05-26 05:50:00,56.3,47.0,29.29,East,90,0.0,0.0,71,0.00,,---,0.00,VWS V14.01,2013-05-26 09:50:00,
2013-05-26 05:55:00,56.3,47.0,29.29,North,0,0.0,0.0,71,0.00,,---,0.00,VWS V14.01,2013-05-26 09:55:00,
2013-05-26 06:00:00,56.3,47.4,29.29,NE,45,0.0,0.0,72,0.00,,---,0.00,VWS V14.01,2013-05-26 10:00:00,
2013-05-26 06:05:00,56.3,47.4,29.29,North,0,0.0,0.0,72,0.00,,---,0.00,VWS V14.01,2013-05-26 10:05:00,
2013-05-26 06:10:00,56.3,47.4,29.29,East,90,0.0,0.0,72,0.00,,---,0.00,VWS V14.01,2013-05-26 10:10:00,
2013-05-26 06:15:00,56.1,47.2,29.29,North,0,0.0,0.0,72,0.00,,---,0.00,VWS V14.01,2013-05-26 10:15:00,
2013-05-26 06:20:00,56.1,47.2,29.29,East,90,0.0,0.0,72,0.00,,---,0.00,VWS V14.01,2013-05-26 10:20:00,
2013-05-26 06:25:00,56.1,47.2,29.29,North,0,0.0,0.0,72,0.00,,---,0.00,VWS V14.01,2013-05-26 10:25:00,
2013-05-26 06:30:00,56.1,47.6,29.29,NW,315,0.0,0.0,73,0.00,,---,0.00,VWS V14.01,2013-05-26 10:30:00,
2013-05-26 06:35:00,56.1,47.6,29.29,NW,315,0.0,0.0,73,0.00,,---,0.00,VWS V14.01,2013-05-26 10:35:00,
2013-05-26 06:40:00,56.1,47.6,29.29,NNE,22,0.0,0.0,73,0.00,,---,0.00,VWS V14.01,2013-05-26 10:40:00,
2013-05-26 06:45:00,56.1,47.6,29.29,North,0,0.0,0.0,73,0.00,,---,0.00,VWS V14.01,2013-05-26 10:45:00,
2013-05-26 06:50:00,56.1,47.6,29.32,North,0,0.0,0.0,73,0.00,,---,0.00,VWS V14.01,2013-05-26 10:50:00,
2013-05-26 06:55:00,56.1,47.6,29.32,North,0,0.0,0.0,73,0.00,,---,0.00,VWS V14.01,2013-05-26 10:55:00,
2013-05-26 07:00:00,56.1,47.6,29.32,North,0,0.0,0.0,73,0.00,,---,0.00,VWS V14.01,2013-05-26 11:00:00,
2013-05-26 07:05:00,56.1,47.6,29.29,North,0,0.0,0.0,73,0.00,,---,0.00,VWS V14.01,2013-05-26 11:05:00,
2013-05-26 07:10:00,56.1,47.6,29.29,ENE,68,0.0,0.0,73,0.00,,---,0.00,VWS V14.01,2013-05-26 11:10:00,
2013-05-26 07:15:00,56.1,47.6,29.29,ENE,68,0.0,0.0,73,0.00,,---,0.00,VWS V14.01,2013-05-26 11:15:00,
2013-05-26 07:20:00,56.3,47.8,29.32,East,90,0.0,0.0,73,0.00,,---,0.00,VWS V14.01,2013-05-26 11:20:00,
2013-05-26 07:25:00,56.3,47.8,29.32,North,0,0.0,0.0,73,0.00,,---,0.00,VWS V14.01,2013-05-26 11:25:00,
2013-05-26 07:30:00,56.3,47.8,29.32,North,0,0.0,0.0,73,0.00,,---,0.00,VWS V14.01,2013-05-26 11:30:00,
2013-05-26 07:35:00,56.3,47.8,29.32,North,0,0.0,0.0,73,0.00,,---,0.00,VWS V14.01,2013-05-26 11:35:00,
2013-05-26 07:40:00,56.5,48.3,29.32,NW,315,0.0,0.0,74,0.00,,---,0.00,VWS V14.01,2013-05-26 11:40:00,
2013-05-26 07:45:00,56.7,48.1,29.32,NNW,338,0.0,0.0,73,0.00,,---,0.00,VWS V14.01,2013-05-26 11:45:00,
2013-05-26 07:50:00,56.7,48.1,29.32,NW,315,0.0,0.0,73,0.00,,---,0.00,VWS V14.01,2013-05-26 11:50:00,
2013-05-26 07:55:00,56.8,48.3,29.32,NW,315,0.0,1.1,73,0.00,,---,0.00,VWS V14.01,2013-05-26 11:55:00,
2013-05-26 08:00:00,56.8,48.3,29.32,NW,315,0.0,0.9,73,0.00,,---,0.00,VWS V14.01,2013-05-26 12:00:00,
2013-05-26 08:05:00,57.0,48.5,29.32,WNW,292,0.0,0.0,73,0.00,,---,0.00,VWS V14.01,2013-05-26 12:05:00,
2013-05-26 08:10:00,57.0,48.1,29.32,North,0,0.0,0.0,72,0.00,,---,0.00,VWS V14.01,2013-05-26 12:10:00,
2013-05-26 08:15:00,57.0,48.1,29.32,West,270,0.0,0.0,72,0.00,,---,0.00,VWS V14.01,2013-05-26 12:15:00,
2013-05-26 08:20:00,57.0,48.1,29.32,West,270,0.0,0.0,72,0.00,,---,0.00,VWS V14.01,2013-05-26 12:20:00,
2013-05-26 08:25:00,57.2,47.9,29.32,WSW,248,0.0,0.0,71,0.00,,---,0.00,VWS V14.01,2013-05-26 12:25:00,
2013-05-26 08:30:00,57.2,47.9,29.32,SW,225,0.0,0.0,71,0.00,,---,0.00,VWS V14.01,2013-05-26 12:30:00,
2013-05-26 08:35:00,57.2,48.3,29.32,SW,225,0.0,0.0,72,0.00,,---,0.00,VWS V14.01,2013-05-26 12:35:00,
2013-05-26 08:40:00,57.4,48.1,29.32,South,180,0.0,0.0,71,0.00,,---,0.00,VWS V14.01,2013-05-26 12:40:00,
2013-05-26 08:45:00,57.2,48.3,29.32,SW,225,0.0,0.0,72,0.00,,---,0.00,VWS V14.01,2013-05-26 12:45:00,
2013-05-26 08:50:00,57.4,48.8,29.32,South,180,0.0,0.9,73,0.00,,---,0.00,VWS V14.01,2013-05-26 12:50:00,
2013-05-26 08:55:00,57.4,48.4,29.32,SE,135,0.0,0.0,72,0.00,,---,0.00,VWS V14.01,2013-05-26 12:55:00,
2013-05-26 09:00:00,57.6,48.6,29.32,SE,135,0.0,0.0,72,0.00,,---,0.00,VWS V14.01,2013-05-26 13:00:00,
2013-05-26 09:05:00,57.6,48.6,29.32,SSW,202,0.0,0.9,72,0.00,,---,0.00,VWS V14.01,2013-05-26 13:05:00,
2013-05-26 09:10:00,57.7,48.4,29.32,South,180,0.0,1.1,71,0.00,,---,0.00,VWS V14.01,2013-05-26 13:10:00,
2013-05-26 09:15:00,57.7,48.0,29.32,South,180,1.1,1.1,70,0.00,,---,0.00,VWS V14.01,2013-05-26 13:15:00,
2013-05-26 09:20:00,57.7,48.0,29.32,South,180,0.0,1.1,70,0.00,,---,0.00,VWS V14.01,2013-05-26 13:20:00,
2013-05-26 09:25:00,57.9,48.2,29.32,South,180,0.0,0.0,70,0.00,,---,0.00,VWS V14.01,2013-05-26 13:25:00,
2013-05-26 09:30:00,57.9,48.2,29.32,South,180,0.0,0.0,70,0.00,,---,0.00,VWS V14.01,2013-05-26 13:30:00,
2013-05-26 09:35:00,58.1,48.0,29.35,WSW,248,0.0,0.0,69,0.00,,---,0.00,VWS V14.01,2013-05-26 13:35:00,
2013-05-26 09:40:00,58.1,48.4,29.35,SW,225,0.0,0.0,70,0.00,,---,0.00,VWS V14.01,2013-05-26 13:40:00,
2013-05-26 09:45:00,58.3,48.2,29.35,South,180,0.0,0.9,69,0.00,,---,0.00,VWS V14.01,2013-05-26 13:45:00,
2013-05-26 09:50:00,58.3,48.2,29.35,East,90,0.0,0.0,69,0.00,,---,0.00,VWS V14.01,2013-05-26 13:50:00,
2013-05-26 09:55:00,58.5,48.0,29.35,West,270,0.0,1.1,68,0.00,,---,0.00,VWS V14.01,2013-05-26 13:55:00,
2013-05-26 10:00:00,58.5,48.3,29.35,East,90,0.0,0.0,69,0.00,,---,0.00,VWS V14.01,2013-05-26 14:00:00,
2013-05-26 10:05:00,58.8,48.7,29.35,SW,225,0.0,0.0,69,0.00,,---,0.00,VWS V14.01,2013-05-26 14:05:00,
2013-05-26 10:10:00,58.8,48.7,29.35,South,180,0.9,1.3,69,0.00,,---,0.00,VWS V14.01,2013-05-26 14:10:00,
2013-05-26 10:15:00,59.0,48.1,29.35,NNE,22,0.0,1.1,67,0.00,,---,0.00,VWS V14.01,2013-05-26 14:15:00,
2013-05-26 10:20:00,59.2,48.2,29.35,WNW,292,1.3,1.3,67,0.00,,---,0.00,VWS V14.01,2013-05-26 14:20:00,
2013-05-26 10:25:00,59.4,48.4,29.35,SSW,202,0.9,1.1,67,0.00,,---,0.00,VWS V14.01,2013-05-26 14:25:00,
2013-05-26 10:30:00,59.5,47.8,29.35,South,180,1.3,1.6,65,0.00,,---,0.00,VWS V14.01,2013-05-26 14:30:00,
2013-05-26 10:35:00,59.7,47.1,29.35,West,270,2.2,2.2,63,0.00,,---,0.00,VWS V14.01,2013-05-26 14:35:00,
2013-05-26 10:40:00,59.9,46.9,29.35,SSW,202,1.6,2.0,62,0.00,,---,0.00,VWS V14.01,2013-05-26 14:40:00,
2013-05-26 10:45:00,60.1,47.0,29.35,South,180,1.1,1.6,62,0.00,,---,0.00,VWS V14.01,2013-05-26 14:45:00,
2013-05-26 10:50:00,60.3,47.2,29.35,SSE,158,1.1,1.3,62,0.00,,---,0.00,VWS V14.01,2013-05-26 14:50:00,
2013-05-26 10:55:00,60.6,47.1,29.35,SSW,202,1.1,1.1,61,0.00,,---,0.00,VWS V14.01,2013-05-26 14:55:00,
2013-05-26 11:00:00,60.6,44.8,29.35,SW,225,1.3,1.3,56,0.00,,---,0.00,VWS V14.01,2013-05-26 15:00:00,
2013-05-26 11:05:00,60.8,46.0,29.35,SSW,202,1.1,2.0,58,0.00,,---,0.00,VWS V14.01,2013-05-26 15:05:00,
2013-05-26 11:10:00,61.0,46.1,29.35,SSW,202,0.9,2.0,58,0.00,,---,0.00,VWS V14.01,2013-05-26 15:10:00,
2013-05-26 11:15:00,61.0,46.1,29.35,SW,225,1.1,1.6,58,0.00,,---,0.00,VWS V14.01,2013-05-26 15:15:00,
2013-05-26 11:20:00,61.0,45.7,29.35,SSW,202,0.0,0.0,57,0.00,,---,0.00,VWS V14.01,2013-05-26 15:20:00,
2013-05-26 11:25:00,61.2,46.3,29.35,West,270,2.2,2.2,58,0.00,,---,0.00,VWS V14.01,2013-05-26 15:25:00,
2013-05-26 11:30:00,61.2,46.3,29.35,NE,45,0.9,0.9,58,0.00,,---,0.00,VWS V14.01,2013-05-26 15:30:00,
2013-05-26 11:35:00,61.3,45.0,29.35,SW,225,0.9,0.9,55,0.00,,---,0.00,VWS V14.01,2013-05-26 15:35:00,
2013-05-26 11:40:00,61.7,42.9,29.35,SSW,202,2.2,2.2,50,0.00,,---,0.00,VWS V14.01,2013-05-26 15:40:00,
2013-05-26 11:45:00,61.7,43.4,29.35,South,180,2.0,2.0,51,0.00,,---,0.00,VWS V14.01,2013-05-26 15:45:00,
2013-05-26 11:50:00,61.9,42.0,29.35,South,180,0.9,2.0,48,0.00,,---,0.00,VWS V14.01,2013-05-26 15:50:00,
2013-05-26 11:55:00,62.1,43.7,29.35,SSE,158,0.9,1.1,51,0.00,,---,0.00,VWS V14.01,2013-05-26 15:55:00,
2013-05-26 12:00:00,62.2,43.9,29.35,ESE,112,0.0,0.0,51,0.00,,---,0.00,VWS V14.01,2013-05-26 16:00:00,
2013-05-26 12:05:00,62.4,42.5,29.35,SW,225,1.1,1.3,48,0.00,,---,0.00,VWS V14.01,2013-05-26 16:05:00,
2013-05-26 12:10:00,62.4,43.0,29.35,South,180,0.9,1.3,49,0.00,,---,0.00,VWS V14.01,2013-05-26 16:10:00,
2013-05-26 12:15:00,62.6,43.2,29.35,SW,225,1.3,2.5,49,0.00,,---,0.00,VWS V14.01,2013-05-26 16:15:00,
2013-05-26 12:20:00,62.8,44.4,29.35,SE,135,1.6,1.6,51,0.00,,---,0.00,VWS V14.01,2013-05-26 16:20:00,
2013-05-26 12:25:00,62.6,44.8,29.35,WNW,292,0.0,0.0,52,0.00,,---,0.00,VWS V14.01,2013-05-26 16:25:00,
2013-05-26 12:30:00,62.8,44.9,29.35,SSW,202,2.0,2.2,52,0.00,,---,0.00,VWS V14.01,2013-05-26 16:30:00,
2013-05-26 12:35:00,63.3,43.8,29.35,South,180,0.9,1.1,49,0.00,,---,0.00,VWS V14.01,2013-05-26 16:35:00,
2013-05-26 12:40:00,63.3,44.4,29.35,South,180,0.0,0.0,50,0.00,,---,0.00,VWS V14.01,2013-05-26 16:40:00,
2013-05-26 12:45:00,63.7,44.2,29.35,SSW,202,1.1,2.9,49,0.00,,---,0.00,VWS V14.01,2013-05-26 16:45:00,
2013-05-26 12:50:00,63.7,44.7,29.35,West,270,1.1,1.6,50,0.00,,---,0.00,VWS V14.01,2013-05-26 16:50:00,
2013-05-26 12:55:00,63.9,42.7,29.35,WSW,248,2.5,2.5,46,0.00,,---,0.00,VWS V14.01,2013-05-26 16:55:00,
2013-05-26 13:00:00,64.2,44.7,29.35,SW,225,1.6,2.0,49,0.00,,---,0.00,VWS V14.01,2013-05-26 17:00:00,
2013-05-26 13:05:00,64.9,45.9,29.35,SSE,158,2.7,2.7,50,0.04,,---,0.04,VWS V14.01,2013-05-26 17:05:00,
2013-05-26 13:10:00,65.1,45.0,29.35,South,180,0.9,2.0,48,0.04,,---,0.04,VWS V14.01,2013-05-26 17:10:00,
2013-05-26 13:15:00,65.5,44.7,29.35,South,180,2.7,2.7,47,0.04,,---,0.04,VWS V14.01,2013-05-26 17:15:00,
2013-05-26 13:20:00,65.3,42.8,29.35,SW,225,2.0,2.7,44,0.04,,---,0.04,VWS V14.01,2013-05-26 17:20:00,
2013-05-26 13:25:00,65.3,44.6,29.35,NW,315,1.3,2.0,47,0.04,,---,0.04,VWS V14.01,2013-05-26 17:25:00,
2013-05-26 13:30:00,65.5,43.6,29.35,NW,315,1.6,1.6,45,0.04,,---,0.04,VWS V14.01,2013-05-26 17:30:00,
2013-05-26 13:35:00,65.8,43.3,29.32,West,270,2.9,3.1,44,0.04,,---,0.04,VWS V14.01,2013-05-26 17:35:00,
2013-05-26 13:40:00,66.0,42.9,29.32,SW,225,2.9,3.1,43,0.04,,---,0.04,VWS V14.01,2013-05-26 17:40:00,
2013-05-26 13:45:00,66.0,42.9,29.32,SW,225,1.1,1.6,43,0.04,,---,0.04,VWS V14.01,2013-05-26 17:45:00,
2013-05-26 13:50:00,66.0,44.1,29.32,West,270,1.1,1.6,45,0.04,,---,0.04,VWS V14.01,2013-05-26 17:50:00,
2013-05-26 13:55:00,66.2,44.2,29.32,SSW,202,1.6,1.6,45,0.04,,---,0.04,VWS V14.01,2013-05-26 17:55:00,
2013-05-26 14:00:00,66.2,43.1,29.32,West,270,0.0,0.0,43,0.04,,---,0.04,VWS V14.01,2013-05-26 18:00:00,
2013-05-26 14:05:00,66.0,43.5,29.32,South,180,0.0,0.0,44,0.00,,---,0.04,VWS V14.01,2013-05-26 18:05:00,
2013-05-26 14:10:00,65.7,42.0,29.32,West,270,2.5,2.9,42,0.00,,---,0.04,VWS V14.01,2013-05-26 18:10:00,
2013-05-26 14:15:00,65.7,44.3,29.32,West,270,0.0,0.0,46,0.00,,---,0.04,VWS V14.01,2013-05-26 18:15:00,
2013-05-26 14:20:00,65.7,43.2,29.32,SSW,202,2.0,2.5,44,0.00,,---,0.04,VWS V14.01,2013-05-26 18:20:00,
2013-05-26 14:25:00,65.7,43.8,29.32,SW,225,1.3,1.3,45,0.00,,---,0.04,VWS V14.01,2013-05-26 18:25:00,
2013-05-26 14:30:00,65.7,43.8,29.32,WSW,248,1.1,1.1,45,0.00,,---,0.04,VWS V14.01,2013-05-26 18:30:00,
2013-05-26 14:35:00,65.7,44.3,29.32,South,180,1.6,2.9,46,0.00,,---,0.04,VWS V14.01,2013-05-26 18:35:00,
2013-05-26 14:40:00,65.7,43.8,29.32,SSW,202,1.1,2.7,45,0.00,,---,0.04,VWS V14.01,2013-05-26 18:40:00,
2013-05-26 14:45:00,65.5,43.6,29.32,South,180,2.9,2.9,45,0.00,,---,0.04,VWS V14.01,2013-05-26 18:45:00,
2013-05-26 14:50:00,65.7,44.3,29.32,ESE,112,1.3,2.0,46,0.00,,---,0.04,VWS V14.01,2013-05-26 18:50:00,
2013-05-26 14:55:00,65.7,43.8,29.32,SW,225,1.3,1.3,45,0.00,,---,0.04,VWS V14.01,2013-05-26 18:55:00,
2013-05-26 15:00:00,65.8,43.9,29.32,South,180,2.2,2.2,45,0.00,,---,0.04,VWS V14.01,2013-05-26 19:00:00,
2013-05-26 15:05:00,65.8,43.3,29.29,SW,225,1.6,1.6,44,0.00,,---,0.04,VWS V14.01,2013-05-26 19:05:00,
2013-05-26 15:10:00,65.8,44.5,29.29,South,180,1.6,1.6,46,0.00,,---,0.04,VWS V14.01,2013-05-26 19:10:00,
2013-05-26 15:15:00,66.2,45.4,29.29,South,180,1.6,1.6,47,0.00,,---,0.04,VWS V14.01,2013-05-26 19:15:00,
2013-05-26 15:20:00,66.6,45.7,29.29,SE,135,1.3,2.7,47,0.00,,---,0.04,VWS V14.01,2013-05-26 19:20:00,
2013-05-26 15:25:00,66.6,45.7,29.29,SW,225,0.0,1.1,47,0.00,,---,0.04,VWS V14.01,2013-05-26 19:25:00,
2013-05-26 15:30:00,66.6,46.3,29.29,North,0,0.0,0.9,48,0.00,,---,0.04,VWS V14.01,2013-05-26 19:30:00,
2013-05-26 15:35:00,66.7,44.8,29.32,SW,225,1.1,1.6,45,0.00,,---,0.04,VWS V14.01,2013-05-26 19:35:00,
2013-05-26 15:40:00,66.9,44.9,29.32,SW,225,1.6,2.0,45,0.00,,---,0.04,VWS V14.01,2013-05-26 19:40:00,
2013-05-26 15:45:00,67.1,45.1,29.32,SSW,202,1.3,2.2,45,0.00,,---,0.04,VWS V14.01,2013-05-26 19:45:00,
2013-05-26 15:50:00,67.1,45.1,29.32,West,270,0.0,0.0,45,0.00,,---,0.04,VWS V14.01,2013-05-26 19:50:00,
2013-05-26 15:55:00,67.1,45.7,29.32,WSW,248,1.3,1.3,46,0.00,,---,0.04,VWS V14.01,2013-05-26 19:55:00,
2013-05-26 16:00:00,66.9,46.0,29.32,North,0,1.6,2.5,47,0.00,,---,0.04,VWS V14.01,2013-05-26 20:00:00,
2013-05-26 16:05:00,67.1,46.2,29.29,NW,315,2.2,2.7,47,0.00,,---,0.04,VWS V14.01,2013-05-26 20:05:00,
2013-05-26 16:10:00,67.5,44.8,29.29,SW,225,0.0,1.3,44,0.00,,---,0.04,VWS V14.01,2013-05-26 20:10:00,
2013-05-26 16:15:00,67.8,45.1,29.29,South,180,1.6,2.0,44,0.00,,---,0.04,VWS V14.01,2013-05-26 20:15:00,
2013-05-26 16:20:00,67.8,45.7,29.29,South,180,2.0,2.5,45,0.00,,---,0.04,VWS V14.01,2013-05-26 20:20:00,
2013-05-26 16:25:00,67.6,44.4,29.29,SSE,158,2.7,2.7,43,0.00,,---,0.04,VWS V14.01,2013-05-26 20:25:00,
2013-05-26 16:30:00,67.8,45.7,29.29,North,0,2.9,2.9,45,0.00,,---,0.04,VWS V14.01,2013-05-26 20:30:00,
2013-05-26 16:35:00,68.0,45.3,29.29,SSW,202,1.6,1.6,44,0.00,,---,0.04,VWS V14.01,2013-05-26 20:35:00,
2013-05-26 16:40:00,68.4,46.2,29.29,South,180,2.0,2.0,45,0.00,,---,0.04,VWS V14.01,2013-05-26 20:40:00,
2013-05-26 16:45:00,68.4,45.0,29.29,SSW,202,2.9,2.9,43,0.00,,---,0.04,VWS V14.01,2013-05-26 20:45:00,
2013-05-26 16:50:00,68.4,45.0,29.29,SW,225,1.1,1.6,43,0.00,,---,0.04,VWS V14.01,2013-05-26 20:50:00,
2013-05-26 16:55:00,68.7,46.0,29.29,SSW,202,2.7,2.7,44,0.00,,---,0.04,VWS V14.01,2013-05-26 20:55:00,
2013-05-26 17:00:00,68.5,46.4,29.29,WNW,292,1.1,1.1,45,0.00,,---,0.04,VWS V14.01,2013-05-26 21:00:00,
2013-05-26 17:05:00,68.4,46.8,29.29,NW,315,0.0,1.1,46,0.00,,---,0.04,VWS V14.01,2013-05-26 21:05:00,
2013-05-26 17:10:00,68.4,45.6,29.29,SSW,202,0.9,1.3,44,0.00,,---,0.04,VWS V14.01,2013-05-26 21:10:00,
2013-05-26 17:15:00,68.5,46.4,29.29,South,180,0.0,0.0,45,0.00,,---,0.04,VWS V14.01,2013-05-26 21:15:00,
2013-05-26 17:20:00,68.5,46.4,29.29,WNW,292,0.9,0.9,45,0.00,,---,0.04,VWS V14.01,2013-05-26 21:20:00,
2013-05-26 17:25:00,68.5,46.4,29.29,West,270,0.9,0.9,45,0.00,,---,0.04,VWS V14.01,2013-05-26 21:25:00,
2013-05-26 17:30:00,68.5,47.0,29.29,ESE,112,0.9,0.9,46,0.00,,---,0.04,VWS V14.01,2013-05-26 21:30:00,
2013-05-26 17:35:00,68.7,46.5,29.29,SW,225,0.0,1.1,45,0.00,,---,0.04,VWS V14.01,2013-05-26 21:35:00,
2013-05-26 17:40:00,69.1,46.9,29.29,SW,225,0.0,0.0,45,0.00,,---,0.04,VWS V14.01,2013-05-26 21:40:00,
2013-05-26 17:45:00,69.3,45.8,29.29,SSW,202,1.3,2.0,43,0.00,,---,0.04,VWS V14.01,2013-05-26 21:45:00,
2013-05-26 17:50:00,69.1,47.5,29.29,North,0,2.0,2.5,46,0.00,,---,0.04,VWS V14.01,2013-05-26 21:50:00,
2013-05-26 17:55:00,69.3,47.6,29.29,NNW,338,1.3,2.5,46,0.00,,---,0.04,VWS V14.01,2013-05-26 21:55:00,
2013-05-26 18:00:00,69.1,46.9,29.29,NW,315,0.0,0.0,45,0.00,,---,0.04,VWS V14.01,2013-05-26 22:00:00,
2013-05-26 18:05:00,69.3,47.6,29.29,NW,315,2.5,2.5,46,0.00,,---,0.04,VWS V14.01,2013-05-26 22:05:00,
2013-05-26 18:10:00,69.1,45.7,29.29,SSW,202,1.6,2.0,43,0.00,,---,0.04,VWS V14.01,2013-05-26 22:10:00,
2013-05-26 18:15:00,69.3,45.8,29.29,SSE,158,0.9,0.9,43,0.00,,---,0.04,VWS V14.01,2013-05-26 22:15:00,
2013-05-26 18:20:00,69.4,47.2,29.29,South,180,0.0,0.0,45,0.00,,---,0.04,VWS V14.01,2013-05-26 22:20:00,
2013-05-26 18:25:00,69.4,47.2,29.29,SW,225,0.0,0.0,45,0.00,,---,0.04,VWS V14.01,2013-05-26 22:25:00,
2013-05-26 18:30:00,69.4,47.8,29.29,SW,225,0.0,0.0,46,0.00,,---,0.04,VWS V14.01,2013-05-26 22:30:00,
2013-05-26 18:35:00,69.4,47.8,29.26,NNE,22,1.1,1.1,46,0.00,,---,0.04,VWS V14.01,2013-05-26 22:35:00,
2013-05-26 18:40:00,69.3,47.6,29.26,SSE,158,0.0,0.0,46,0.00,,---,0.04,VWS V14.01,2013-05-26 22:40:00,
2013-05-26 18:45:00,69.1,46.9,29.26,SW,225,0.0,1.1,45,0.00,,---,0.04,VWS V14.01,2013-05-26 22:45:00,
2013-05-26 18:50:00,69.3,47.6,29.26,West,270,0.0,0.0,46,0.00,,---,0.04,VWS V14.01,2013-05-26 22:50:00,
2013-05-26 18:55:00,69.1,47.5,29.26,SSW,202,0.0,0.0,46,0.00,,---,0.04,VWS V14.01,2013-05-26 22:55:00,
2013-05-26 19:00:00,69.1,48.0,29.26,NNW,338,0.0,0.0,47,0.00,,---,0.04,VWS V14.01,2013-05-26 23:00:00,
2013-05-26 19:05:00,68.9,47.9,29.26,SW,225,0.0,0.0,47,0.00,,---,0.04,VWS V14.01,2013-05-26 23:05:00,
2013-05-26 19:10:00,68.9,47.9,29.26,NW,315,0.0,0.0,47,0.00,,---,0.04,VWS V14.01,2013-05-26 23:10:00,
2013-05-26 19:15:00,68.7,47.1,29.26,SW,225,0.0,0.0,46,0.00,,---,0.04,VWS V14.01,2013-05-26 23:15:00,
2013-05-26 19:20:00,68.5,47.5,29.26,SSW,202,0.0,0.0,47,0.00,,---,0.04,VWS V14.01,2013-05-26 23:20:00,
2013-05-26 19:25:00,68.5,47.5,29.26,SSW,202,0.0,0.0,47,0.00,,---,0.04,VWS V14.01,2013-05-26 23:25:00,
2013-05-26 19:30:00,68.4,47.4,29.26,WSW,248,0.0,0.0,47,0.00,,---,0.04,VWS V14.01,2013-05-26 23:30:00,
2013-05-26 19:35:00,68.2,47.2,29.23,East,90,0.0,0.0,47,0.00,,---,0.04,VWS V14.01,2013-05-26 23:35:00,
2013-05-26 19:40:00,68.2,47.8,29.23,North,0,0.0,0.0,48,0.00,,---,0.04,VWS V14.01,2013-05-26 23:40:00,
2013-05-26 19:45:00,68.0,47.6,29.23,North,0,0.0,0.0,48,0.00,,---,0.04,VWS V14.01,2013-05-26 23:45:00,
2013-05-26 19:50:00,68.0,47.6,29.26,East,90,0.0,0.0,48,0.00,,---,0.04,VWS V14.01,2013-05-26 23:50:00,
2013-05-26 19:55:00,67.6,47.8,29.26,East,90,0.0,0.0,49,0.00,,---,0.04,VWS V14.01,2013-05-26 23:55:00,
2013-05-26 20:00:00,67.6,47.8,29.26,ENE,68,0.0,0.0,49,0.00,,---,0.04,VWS V14.01,2013-05-27 00:00:00,
2013-05-26 20:05:00,67.6,47.8,29.26,East,90,0.0,0.0,49,0.00,,---,0.04,VWS V14.01,2013-05-27 00:05:00,
2013-05-26 20:10:00,67.5,47.7,29.26,NE,45,0.0,0.0,49,0.00,,---,0.04,VWS V14.01,2013-05-27 00:10:00,
2013-05-26 20:15:00,67.5,47.7,29.26,NE,45,0.0,0.0,49,0.00,,---,0.04,VWS V14.01,2013-05-27 00:15:00,
2013-05-26 20:20:00,67.3,47.5,29.23,East,90,0.0,0.0,49,0.00,,---,0.04,VWS V14.01,2013-05-27 00:20:00,
2013-05-26 20:25:00,67.1,47.3,29.23,East,90,0.0,0.0,49,0.00,,---,0.04,VWS V14.01,2013-05-27 00:25:00,
2013-05-26 20:30:00,66.9,47.2,29.23,East,90,0.0,0.0,49,0.00,,---,0.04,VWS V14.01,2013-05-27 00:30:00,
2013-05-26 20:35:00,66.9,47.2,29.26,East,90,0.0,0.0,49,0.00,,---,0.04,VWS V14.01,2013-05-27 00:35:00,
2013-05-26 20:40:00,66.6,46.8,29.26,East,90,0.0,0.0,49,0.00,,---,0.04,VWS V14.01,2013-05-27 00:40:00,
2013-05-26 20:45:00,66.7,47.0,29.26,NE,45,0.0,0.0,49,0.00,,---,0.04,VWS V14.01,2013-05-27 00:45:00,
2013-05-26 20:50:00,66.7,47.0,29.23,NE,45,0.0,0.0,49,0.00,,---,0.04,VWS V14.01,2013-05-27 00:50:00,
2013-05-26 20:55:00,66.6,46.8,29.23,NNW,338,0.0,0.0,49,0.00,,---,0.04,VWS V14.01,2013-05-27 00:55:00,
2013-05-26 21:00:00,66.4,46.7,29.23,North,0,0.0,0.0,49,0.00,,---,0.04,VWS V14.01,2013-05-27 01:00:00,
2013-05-26 21:05:00,66.2,46.5,29.23,North,0,0.0,0.0,49,0.00,,---,0.04,VWS V14.01,2013-05-27 01:05:00,
2013-05-26 21:10:00,65.8,47.2,29.23,North,0,0.0,0.0,51,0.00,,---,0.04,VWS V14.01,2013-05-27 01:10:00,
2013-05-26 21:15:00,65.7,48.1,29.23,WNW,292,0.0,0.0,53,0.00,,---,0.04,VWS V14.01,2013-05-27 01:15:00,
2013-05-26 21:20:00,65.7,47.6,29.23,North,0,0.0,0.0,52,0.00,,---,0.04,VWS V14.01,2013-05-27 01:20:00,
2013-05-26 21:25:00,65.5,46.9,29.23,North,0,0.0,0.0,51,0.00,,---,0.04,VWS V14.01,2013-05-27 01:25:00,
2013-05-26 21:30:00,65.1,47.6,29.23,NW,315,0.0,0.0,53,0.00,,---,0.04,VWS V14.01,2013-05-27 01:30:00,
2013-05-26 21:35:00,65.1,48.6,29.26,NW,315,0.0,0.0,55,0.00,,---,0.04,VWS V14.01,2013-05-27 01:35:00,
2013-05-26 21:40:00,64.8,48.2,29.26,NW,315,0.0,0.0,55,0.00,,---,0.04,VWS V14.01,2013-05-27 01:40:00,
2013-05-26 21:45:00,64.6,48.5,29.26,West,270,0.0,0.0,56,0.00,,---,0.04,VWS V14.01,2013-05-27 01:45:00,
2013-05-26 21:50:00,64.6,48.5,29.26,West,270,0.0,0.0,56,0.00,,---,0.04,VWS V14.01,2013-05-27 01:50:00,
2013-05-26 21:55:00,64.8,47.8,29.26,West,270,0.0,0.0,54,0.00,,---,0.04,VWS V14.01,2013-05-27 01:55:00,
2013-05-26 22:00:00,64.6,48.1,29.26,West,270,0.0,0.0,55,0.00,,---,0.04,VWS V14.01,2013-05-27 02:00:00,
2013-05-26 22:05:00,64.4,47.9,29.29,NW,315,0.0,0.0,55,0.00,,---,0.04,VWS V14.01,2013-05-27 02:05:00,
2013-05-26 22:10:00,64.2,48.2,29.29,NW,315,0.0,0.0,56,0.00,,---,0.04,VWS V14.01,2013-05-27 02:10:00,
2013-05-26 22:15:00,63.9,49.3,29.29,NW,315,0.0,0.0,59,0.00,,---,0.04,VWS V14.01,2013-05-27 02:15:00,
2013-05-26 22:20:00,63.5,49.4,29.26,NW,315,0.0,0.0,60,0.00,,---,0.04,VWS V14.01,2013-05-27 02:20:00,
2013-05-26 22:25:00,63.5,49.4,29.26,NW,315,1.1,1.1,60,0.00,,---,0.04,VWS V14.01,2013-05-27 02:25:00,
2013-05-26 22:30:00,63.3,49.2,29.26,NW,315,0.0,0.0,60,0.00,,---,0.04,VWS V14.01,2013-05-27 02:30:00,
2013-05-26 22:35:00,63.0,48.9,29.29,NW,315,0.0,0.0,60,0.00,,---,0.04,VWS V14.01,2013-05-27 02:35:00,
2013-05-26 22:40:00,63.1,48.6,29.29,NW,315,0.0,0.0,59,0.00,,---,0.04,VWS V14.01,2013-05-27 02:40:00,
2013-05-26 22:45:00,63.0,48.9,29.29,NW,315,0.0,0.0,60,0.00,,---,0.04,VWS V14.01,2013-05-27 02:45:00,
2013-05-26 22:50:00,62.6,49.0,29.29,NW,315,0.0,0.0,61,0.00,,---,0.04,VWS V14.01,2013-05-27 02:50:00,
2013-05-26 22:55:00,62.4,49.2,29.29,West,270,0.0,0.0,62,0.00,,---,0.04,VWS V14.01,2013-05-27 02:55:00,
2013-05-26 23:00:00,62.4,49.2,29.29,West,270,0.0,0.0,62,0.00,,---,0.04,VWS V14.01,2013-05-27 03:00:00,
2013-05-26 23:05:00,62.6,49.0,29.29,West,270,0.0,0.0,61,0.00,,---,0.04,VWS V14.01,2013-05-27 03:05:00,
2013-05-26 23:10:00,62.4,50.1,29.29,WNW,292,0.0,0.0,64,0.00,,---,0.04,VWS V14.01,2013-05-27 03:10:00,
2013-05-26 23:15:00,62.2,49.9,29.29,WNW,292,0.0,0.0,64,0.00,,---,0.04,VWS V14.01,2013-05-27 03:15:00,
2013-05-26 23:20:00,62.4,49.7,29.26,WNW,292,0.0,0.0,63,0.00,,---,0.04,VWS V14.01,2013-05-27 03:20:00,
2013-05-26 23:25:00,62.2,50.3,29.26,WNW,292,0.0,0.0,65,0.00,,---,0.04,VWS V14.01,2013-05-27 03:25:00,
2013-05-26 23:30:00,62.2,50.3,29.26,WNW,292,0.0,0.0,65,0.00,,---,0.04,VWS V14.01,2013-05-27 03:30:00,
2013-05-26 23:35:00,62.2,49.9,29.29,NNW,338,0.0,0.0,64,0.00,,---,0.04,VWS V14.01,2013-05-27 03:35:00,
2013-05-26 23:40:00,62.2,50.3,29.29,North,0,0.0,0.0,65,0.00,,---,0.04,VWS V14.01,2013-05-27 03:40:00,
2013-05-26 23:45:00,62.2,50.3,29.29,North,0,0.0,0.0,65,0.00,,---,0.04,VWS V14.01,2013-05-27 03:45:00,
2013-05-26 23:50:00,61.9,50.4,29.26,WNW,292,0.0,0.0,66,0.00,,---,0.04,VWS V14.01,2013-05-27 03:50:00,
2013-05-26 23:55:00,61.9,50.8,29.26,SW,225,0.0,0.0,67,0.00,,---,0.04,VWS V14.01,2013-05-27 03:55:00,